Tracking 19909 objects as of 22-Oct-2019
HD Live streaming from Space Station
objects crossing your sky now

IRIDIUM 33 DEB

Track IRIDIUM 33 DEB now!
10-day predictions


NORAD ID: 38033
Int'l Code: 1997-051YV
Perigee: 593.1 km
Apogee: 618.8 km
Inclination: 86.3 °
Period: 96.7 minutes
Semi major axis: 6976 km
RCS: 0.0032 m2 (small)
Launch date: September 14, 1997
Source: United States (US)
Launch site: TYURATAM MISSILE AND SPACE COMPLEX (TTMTR)

Note: This is SATELLITE DEBRIS
aabbcc
Your satellite tracking list
Your tracking list is empty




NASA's NSSDC Master Catalog

Two Line Element Set (TLE):
1 38033U 97051YV  19294.06705010  .00003204  00000-0  33086-3 0  9995
2 38033  86.2771 157.9235 0018412 201.2984 158.7478 14.89720592924859
Source of the keplerian elements: AFSPC